contact:dominique.lefevre@mio.osupytheas.fr, maurice.libes@osupytheas.fr, didier.mallarino@osupytheas.fr
Project:EMSO http://www.emso-fr.org/EMSO-France
Depth: 2436.0 m
Title:EMSO Ligure Ouest : Data MII capteur MICROCAT
DateTime_Computer,Latitude,Longitude,Temperature,Conductivity,Pressure,DateTime_Instrument
DateTime_Computer,Latitude,Longitude,degC,S m-1,dbar,DateTime_Instrument
2020-01-14T00:00:42Z,42.805,6.029,13.2982,4.60041,2469.947,2020-1-14T02:01:14Z
2020-01-14T00:03:45Z,42.805,6.029,13.2986,4.60006,2469.923,2020-1-14T02:04:18Z
2020-01-14T00:06:49Z,42.805,6.029,13.2988,4.60021,2469.937,2020-1-14T02:07:21Z
2020-01-14T00:09:52Z,42.805,6.029,13.2983,4.60002,2469.937,2020-1-14T02:10:24Z
2020-01-14T00:12:55Z,42.805,6.029,13.2977,4.60006,2469.914,2020-1-14T02:13:27Z
2020-01-14T00:15:58Z,42.805,6.029,13.2979,4.60010,2469.923,2020-1-14T02:16:31Z
2020-01-14T00:19:02Z,42.805,6.029,13.2986,4.60009,2469.9,2020-1-14T02:19:34Z
2020-01-14T00:22:05Z,42.805,6.029,13.2982,4.60014,2469.9,2020-1-14T02:22:37Z
2020-01-14T00:25:08Z,42.805,6.029,13.2975,4.59998,2469.923,2020-1-14T02:25:40Z
2020-01-14T00:28:11Z,42.805,6.029,13.2977,4.60015,2469.923,2020-1-14T02:28:44Z
2020-01-14T00:31:14Z,42.805,6.029,13.2974,4.60022,2469.9,2020-1-14T02:31:47Z
2020-01-14T00:34:18Z,42.805,6.029,13.2976,4.60007,2469.923,2020-1-14T02:34:50Z
2020-01-14T00:37:21Z,42.805,6.029,13.2984,4.60019,2469.89,2020-1-14T02:37:53Z
2020-01-14T00:40:24Z,42.805,6.029,13.2982,4.60026,2469.914,2020-1-14T02:40:57Z
2020-01-14T00:43:27Z,42.805,6.029,13.2975,4.60006,2469.876,2020-1-14T02:44:00Z
2020-01-14T00:46:31Z,42.805,6.029,13.2970,4.60006,2469.937,2020-1-14T02:47:03Z
2020-01-14T00:49:34Z,42.805,6.029,13.2975,4.60001,2469.923,2020-1-14T02:50:06Z
2020-01-14T00:52:37Z,42.805,6.029,13.2971,4.60032,2469.923,2020-1-14T02:53:09Z
2020-01-14T00:55:40Z,42.805,6.029,13.2974,4.60002,2469.89,2020-1-14T02:56:13Z
2020-01-14T00:58:44Z,42.805,6.029,13.2978,4.60003,2469.9,2020-1-14T02:59:16Z
2020-01-14T01:01:47Z,42.805,6.029,13.2978,4.60001,2469.876,2020-1-14T03:02:19Z
2020-01-14T01:04:50Z,42.805,6.029,13.2980,4.60035,2469.89,2020-1-14T03:05:23Z
2020-01-14T01:07:54Z,42.805,6.029,13.2981,4.60006,2469.9,2020-1-14T03:08:26Z
2020-01-14T01:10:57Z,42.805,6.029,13.2981,4.60015,2469.89,2020-1-14T03:11:29Z
2020-01-14T01:14:00Z,42.805,6.029,13.2977,4.60006,2469.89,2020-1-14T03:14:32Z
2020-01-14T01:17:03Z,42.805,6.029,13.2976,4.60015,2469.876,2020-1-14T03:17:36Z
2020-01-14T01:20:07Z,42.805,6.029,13.2977,4.60021,2469.876,2020-1-14T03:20:39Z
2020-01-14T01:23:10Z,42.805,6.029,13.2973,4.60014,2469.914,2020-1-14T03:23:42Z
2020-01-14T01:26:13Z,42.805,6.029,13.2971,4.59992,2469.876,2020-1-14T03:26:45Z
2020-01-14T01:29:16Z,42.805,6.029,13.2977,4.59976,2469.876,2020-1-14T03:29:49Z
2020-01-14T01:32:20Z,42.805,6.029,13.2977,4.59993,2469.876,2020-1-14T03:32:52Z
2020-01-14T01:35:23Z,42.805,6.029,13.2984,4.60011,2469.876,2020-1-14T03:35:55Z
2020-01-14T01:38:26Z,42.805,6.029,13.2977,4.60003,2469.89,2020-1-14T03:38:58Z
2020-01-14T01:41:29Z,42.805,6.029,13.2969,4.59997,2469.89,2020-1-14T03:42:02Z
2020-01-14T01:44:33Z,42.805,6.029,13.2974,4.59996,2469.914,2020-1-14T03:45:05Z
2020-01-14T01:47:36Z,42.805,6.029,13.2993,4.60010,2469.853,2020-1-14T03:48:08Z
2020-01-14T01:50:39Z,42.805,6.029,13.2979,4.60026,2469.867,2020-1-14T03:51:11Z
2020-01-14T01:53:42Z,42.805,6.029,13.2977,4.60014,2469.853,2020-1-14T03:54:15Z
2020-01-14T01:56:45Z,42.805,6.029,13.2975,4.60017,2469.876,2020-1-14T03:57:18Z
2020-01-14T01:59:49Z,42.805,6.029,13.2975,4.60009,2469.867,2020-1-14T04:00:21Z
2020-01-14T02:02:52Z,42.805,6.029,13.2976,4.60008,2469.853,2020-1-14T04:03:24Z
2020-01-14T02:05:55Z,42.805,6.029,13.2981,4.60009,2469.867,2020-1-14T04:06:27Z
2020-01-14T02:08:58Z,42.805,6.029,13.2990,4.60008,2469.853,2020-1-14T04:09:31Z
2020-01-14T02:12:02Z,42.805,6.029,13.2980,4.60019,2469.853,2020-1-14T04:12:34Z
2020-01-14T02:15:05Z,42.805,6.029,13.2979,4.59988,2469.853,2020-1-14T04:15:37Z
2020-01-14T02:18:08Z,42.805,6.029,13.2977,4.60023,2469.853,2020-1-14T04:18:40Z
2020-01-14T02:21:11Z,42.805,6.029,13.2981,4.60017,2469.89,2020-1-14T04:21:44Z
2020-01-14T02:24:15Z,42.805,6.029,13.2979,4.59999,2469.83,2020-1-14T04:24:47Z
2020-01-14T02:27:18Z,42.805,6.029,13.2972,4.60014,2469.89,2020-1-14T04:27:50Z
2020-01-14T02:30:21Z,42.805,6.029,13.2971,4.60019,2469.867,2020-1-14T04:30:54Z
2020-01-14T02:33:25Z,42.805,6.029,13.2979,4.60003,2469.83,2020-1-14T04:33:57Z
2020-01-14T02:36:28Z,42.805,6.029,13.2974,4.59995,2469.853,2020-1-14T04:37:01Z
2020-01-14T02:39:31Z,42.805,6.029,13.2981,4.60019,2469.806,2020-1-14T04:40:04Z
2020-01-14T02:42:35Z,42.805,6.029,13.2980,4.60014,2469.821,2020-1-14T04:43:07Z
2020-01-14T02:45:38Z,42.805,6.029,13.2977,4.60007,2469.853,2020-1-14T04:46:10Z
2020-01-14T02:48:41Z,42.805,6.029,13.2978,4.60002,2469.844,2020-1-14T04:49:14Z
2020-01-14T02:51:44Z,42.805,6.029,13.2982,4.60005,2469.83,2020-1-14T04:52:17Z
2020-01-14T02:54:48Z,42.805,6.029,13.2979,4.59998,2469.853,2020-1-14T04:55:20Z
2020-01-14T02:57:51Z,42.805,6.029,13.2976,4.60011,2469.83,2020-1-14T04:58:24Z
2020-01-14T03:00:55Z,42.805,6.029,13.2978,4.59998,2469.844,2020-1-14T05:01:27Z
2020-01-14T03:03:58Z,42.805,6.029,13.2985,4.59997,2469.783,2020-1-14T05:04:30Z
2020-01-14T03:07:01Z,42.805,6.029,13.2987,4.60037,2469.806,2020-1-14T05:07:33Z
2020-01-14T03:10:04Z,42.805,6.029,13.3005,4.60037,2469.821,2020-1-14T05:10:36Z
2020-01-14T03:13:07Z,42.805,6.029,13.2998,4.60031,2469.806,2020-1-14T05:13:40Z
2020-01-14T03:16:11Z,42.805,6.029,13.3001,4.60021,2469.806,2020-1-14T05:16:43Z
2020-01-14T03:19:14Z,42.805,6.029,13.3022,4.60028,2469.783,2020-1-14T05:19:46Z
2020-01-14T03:22:17Z,42.805,6.029,13.2996,4.60042,2469.853,2020-1-14T05:22:49Z
2020-01-14T03:25:20Z,42.805,6.029,13.3015,4.60039,2469.821,2020-1-14T05:25:53Z
2020-01-14T03:28:24Z,42.805,6.029,13.3023,4.60069,2469.821,2020-1-14T05:28:56Z
2020-01-14T03:31:27Z,42.805,6.029,13.3025,4.60040,2469.844,2020-1-14T05:31:59Z
2020-01-14T03:34:30Z,42.805,6.029,13.3023,4.60039,2469.867,2020-1-14T05:35:02Z
2020-01-14T03:37:33Z,42.805,6.029,13.3032,4.60014,2469.844,2020-1-14T05:38:06Z
2020-01-14T03:40:37Z,42.805,6.029,13.2981,4.60000,2469.821,2020-1-14T05:41:09Z
2020-01-14T03:43:40Z,42.805,6.029,13.3000,4.60027,2469.821,2020-1-14T05:44:12Z
2020-01-14T03:46:43Z,42.805,6.029,13.3004,4.60026,2469.83,2020-1-14T05:47:16Z
2020-01-14T03:49:46Z,42.805,6.029,13.3023,4.60029,2469.806,2020-1-14T05:50:19Z
2020-01-14T03:52:50Z,42.805,6.029,13.2994,4.59988,2469.83,2020-1-14T05:53:22Z
2020-01-14T03:55:53Z,42.805,6.029,13.3022,4.59990,2469.844,2020-1-14T05:56:25Z
2020-01-14T03:58:56Z,42.805,6.029,13.3018,4.60011,2469.806,2020-1-14T05:59:28Z
2020-01-14T04:01:59Z,42.805,6.029,13.3020,4.59997,2469.821,2020-1-14T06:02:32Z
2020-01-14T04:05:03Z,42.805,6.029,13.3023,4.59999,2469.83,2020-1-14T06:05:35Z
2020-01-14T04:08:06Z,42.805,6.029,13.3018,4.60023,2469.844,2020-1-14T06:08:38Z
2020-01-14T04:11:09Z,42.805,6.029,13.3008,4.60009,2469.83,2020-1-14T06:11:41Z
2020-01-14T04:14:12Z,42.805,6.029,13.3022,4.60037,2469.844,2020-1-14T06:14:45Z
2020-01-14T04:17:16Z,42.805,6.029,13.3007,4.60010,2469.806,2020-1-14T06:17:48Z
2020-01-14T04:20:19Z,42.805,6.029,13.2998,4.60001,2469.844,2020-1-14T06:20:51Z
2020-01-14T04:23:22Z,42.805,6.029,13.2985,4.59995,2469.83,2020-1-14T06:23:54Z
2020-01-14T04:26:25Z,42.805,6.029,13.2983,4.59983,2469.83,2020-1-14T06:26:58Z
2020-01-14T04:29:29Z,42.805,6.029,13.2973,4.60003,2469.83,2020-1-14T06:30:01Z
2020-01-14T04:32:32Z,42.805,6.029,13.2979,4.59994,2469.797,2020-1-14T06:33:04Z
2020-01-14T04:35:35Z,42.805,6.029,13.2999,4.59986,2469.844,2020-1-14T06:36:07Z
2020-01-14T04:38:38Z,42.805,6.029,13.2989,4.60007,2469.844,2020-1-14T06:39:11Z
2020-01-14T04:41:42Z,42.805,6.029,13.2990,4.59994,2469.806,2020-1-14T06:42:14Z
2020-01-14T04:44:45Z,42.805,6.029,13.2993,4.59988,2469.853,2020-1-14T06:45:17Z
2020-01-14T04:47:48Z,42.805,6.029,13.2998,4.59999,2469.83,2020-1-14T06:48:20Z
2020-01-14T04:50:51Z,42.805,6.029,13.2972,4.60021,2469.83,2020-1-14T06:51:24Z
2020-01-14T04:53:55Z,42.805,6.029,13.2984,4.60014,2469.83,2020-1-14T06:54:27Z
2020-01-14T04:56:58Z,42.805,6.029,13.2998,4.60024,2469.83,2020-1-14T06:57:30Z
2020-01-14T05:00:01Z,42.805,6.029,13.3005,4.60016,2469.867,2020-1-14T07:00:34Z
2020-01-14T05:03:04Z,42.805,6.029,13.3011,4.60015,2469.844,2020-1-14T07:03:37Z
2020-01-14T05:06:08Z,42.805,6.029,13.3006,4.60007,2469.867,2020-1-14T07:06:40Z
2020-01-14T05:09:11Z,42.805,6.029,13.2983,4.60017,2469.83,2020-1-14T07:09:43Z
2020-01-14T05:12:14Z,42.805,6.029,13.2988,4.59985,2469.867,2020-1-14T07:12:46Z
2020-01-14T05:15:17Z,42.805,6.029,13.2993,4.59978,2469.853,2020-1-14T07:15:50Z
2020-01-14T05:18:21Z,42.805,6.029,13.3004,4.59985,2469.844,2020-1-14T07:18:53Z
2020-01-14T05:21:24Z,42.805,6.029,13.2999,4.60001,2469.89,2020-1-14T07:21:56Z
2020-01-14T05:24:27Z,42.805,6.029,13.2989,4.59988,2469.89,2020-1-14T07:24:59Z
2020-01-14T05:27:30Z,42.805,6.029,13.2982,4.60001,2469.83,2020-1-14T07:28:03Z
2020-01-14T05:30:34Z,42.805,6.029,13.2984,4.59998,2469.9,2020-1-14T07:31:06Z
2020-01-14T05:33:37Z,42.805,6.029,13.2988,4.59997,2469.923,2020-1-14T07:34:09Z
2020-01-14T05:36:40Z,42.805,6.029,13.2984,4.59994,2469.937,2020-1-14T07:37:12Z
2020-01-14T05:39:43Z,42.805,6.029,13.2993,4.60007,2469.853,2020-1-14T07:40:16Z
2020-01-14T05:42:46Z,42.805,6.029,13.2991,4.59981,2469.9,2020-1-14T07:43:19Z
2020-01-14T05:45:50Z,42.805,6.029,13.2973,4.60001,2469.914,2020-1-14T07:46:22Z
2020-01-14T05:48:53Z,42.805,6.029,13.2986,4.60005,2469.9,2020-1-14T07:49:25Z
2020-01-14T05:51:56Z,42.805,6.029,13.3007,4.59983,2469.9,2020-1-14T07:52:29Z
2020-01-14T05:55:00Z,42.805,6.029,13.2977,4.59984,2469.914,2020-1-14T07:55:32Z
2020-01-14T05:58:03Z,42.805,6.029,13.2982,4.59994,2469.89,2020-1-14T07:58:35Z
2020-01-14T06:01:06Z,42.805,6.029,13.2979,4.60003,2469.876,2020-1-14T08:01:38Z
2020-01-14T06:04:09Z,42.805,6.029,13.2991,4.59996,2469.9,2020-1-14T08:04:41Z
2020-01-14T06:07:12Z,42.805,6.029,13.2997,4.60002,2469.9,2020-1-14T08:07:45Z
2020-01-14T06:10:16Z,42.805,6.029,13.2986,4.60003,2469.89,2020-1-14T08:10:48Z
2020-01-14T06:13:19Z,42.805,6.029,13.2993,4.60002,2469.876,2020-1-14T08:13:51Z
2020-01-14T06:16:22Z,42.805,6.029,13.2991,4.59983,2469.947,2020-1-14T08:16:54Z
2020-01-14T06:19:25Z,42.805,6.029,13.2984,4.59988,2469.947,2020-1-14T08:19:58Z
2020-01-14T06:22:28Z,42.805,6.029,13.2987,4.60013,2469.96,2020-1-14T08:23:01Z
2020-01-14T06:25:32Z,42.805,6.029,13.2979,4.60021,2469.937,2020-1-14T08:26:04Z
2020-01-14T06:28:35Z,42.805,6.029,13.2990,4.59994,2469.96,2020-1-14T08:29:07Z
2020-01-14T06:31:38Z,42.805,6.029,13.2986,4.59981,2469.96,2020-1-14T08:32:11Z
2020-01-14T06:34:41Z,42.805,6.029,13.2993,4.60019,2469.937,2020-1-14T08:35:14Z
2020-01-14T06:37:45Z,42.805,6.029,13.2998,4.59999,2469.947,2020-1-14T08:38:17Z
2020-01-14T06:40:48Z,42.805,6.029,13.3014,4.60009,2469.947,2020-1-14T08:41:20Z
2020-01-14T06:43:51Z,42.805,6.029,13.3008,4.59998,2469.984,2020-1-14T08:44:23Z
2020-01-14T06:46:54Z,42.805,6.029,13.3012,4.59993,2469.96,2020-1-14T08:47:27Z
2020-01-14T06:49:58Z,42.805,6.029,13.3009,4.59983,2469.947,2020-1-14T08:50:30Z
2020-01-14T06:53:01Z,42.805,6.029,13.2992,4.59996,2470.007,2020-1-14T08:53:33Z
2020-01-14T06:56:04Z,42.805,6.029,13.2990,4.59978,2469.97,2020-1-14T08:56:36Z
2020-01-14T06:59:07Z,42.805,6.029,13.2983,4.59995,2470.007,2020-1-14T08:59:40Z
2020-01-14T07:02:11Z,42.805,6.029,13.3020,4.60001,2469.993,2020-1-14T09:02:43Z
2020-01-14T07:05:14Z,42.805,6.029,13.3019,4.59983,2470.03,2020-1-14T09:05:46Z
2020-01-14T07:08:17Z,42.805,6.029,13.2985,4.59992,2470.053,2020-1-14T09:08:49Z
2020-01-14T07:11:20Z,42.805,6.029,13.3011,4.59989,2470.03,2020-1-14T09:11:53Z
2020-01-14T07:14:23Z,42.805,6.029,13.2997,4.60001,2469.97,2020-1-14T09:14:56Z
2020-01-14T07:17:27Z,42.805,6.029,13.2991,4.60025,2470.017,2020-1-14T09:17:59Z
2020-01-14T07:20:30Z,42.805,6.029,13.3008,4.60011,2470.053,2020-1-14T09:21:02Z
2020-01-14T07:23:33Z,42.805,6.029,13.2989,4.59983,2469.993,2020-1-14T09:24:06Z
2020-01-14T07:26:36Z,42.805,6.029,13.2994,4.60006,2470.063,2020-1-14T09:27:09Z
2020-01-14T07:29:40Z,42.805,6.029,13.3006,4.60003,2470.04,2020-1-14T09:30:12Z
2020-01-14T07:32:43Z,42.805,6.029,13.3009,4.59988,2470.03,2020-1-14T09:33:15Z
2020-01-14T07:35:46Z,42.805,6.029,13.2988,4.59999,2470.053,2020-1-14T09:36:19Z
2020-01-14T07:38:50Z,42.805,6.029,13.3009,4.59997,2470.053,2020-1-14T09:39:22Z
2020-01-14T07:41:53Z,42.805,6.029,13.2986,4.59985,2470.017,2020-1-14T09:42:25Z
2020-01-14T07:44:56Z,42.805,6.029,13.3004,4.59994,2470.1,2020-1-14T09:45:29Z
2020-01-14T07:48:00Z,42.805,6.029,13.3000,4.60003,2470.053,2020-1-14T09:48:32Z
2020-01-14T07:51:03Z,42.805,6.029,13.3000,4.60020,2470.077,2020-1-14T09:51:35Z
2020-01-14T07:54:06Z,42.805,6.029,13.3000,4.59990,2470.077,2020-1-14T09:54:39Z
2020-01-14T07:57:10Z,42.805,6.029,13.3012,4.59990,2470.087,2020-1-14T09:57:42Z
2020-01-14T08:00:13Z,42.805,6.029,13.2991,4.59990,2470.063,2020-1-14T10:00:45Z
2020-01-14T08:03:16Z,42.805,6.029,13.2984,4.60006,2470.063,2020-1-14T10:03:48Z
2020-01-14T08:06:19Z,42.805,6.029,13.3001,4.60003,2470.1,2020-1-14T10:06:52Z
2020-01-14T08:09:22Z,42.805,6.029,13.2990,4.60002,2470.063,2020-1-14T10:09:55Z
2020-01-14T08:12:26Z,42.805,6.029,13.3006,4.59996,2470.087,2020-1-14T10:12:58Z
2020-01-14T08:15:29Z,42.805,6.029,13.2998,4.59992,2470.1,2020-1-14T10:16:01Z
2020-01-14T08:18:32Z,42.805,6.029,13.3019,4.60001,2470.077,2020-1-14T10:19:04Z
2020-01-14T08:21:35Z,42.805,6.029,13.3004,4.59994,2470.1,2020-1-14T10:22:08Z
2020-01-14T08:24:39Z,42.805,6.029,13.3017,4.59997,2470.077,2020-1-14T10:25:11Z
2020-01-14T08:27:42Z,42.805,6.029,13.2988,4.59994,2470.11,2020-1-14T10:28:14Z
2020-01-14T08:30:45Z,42.805,6.029,13.2988,4.59990,2470.1,2020-1-14T10:31:17Z
2020-01-14T08:33:48Z,42.805,6.029,13.3002,4.60001,2470.077,2020-1-14T10:34:21Z
2020-01-14T08:36:52Z,42.805,6.029,13.2998,4.59991,2470.077,2020-1-14T10:37:24Z
2020-01-14T08:39:55Z,42.805,6.029,13.3003,4.59990,2470.11,2020-1-14T10:40:27Z
2020-01-14T08:42:58Z,42.805,6.029,13.2998,4.59988,2470.124,2020-1-14T10:43:31Z
2020-01-14T08:46:01Z,42.805,6.029,13.2991,4.59991,2470.11,2020-1-14T10:46:34Z
2020-01-14T08:49:05Z,42.805,6.029,13.2988,4.59993,2470.124,2020-1-14T10:49:37Z
2020-01-14T08:52:08Z,42.805,6.029,13.2991,4.59990,2470.087,2020-1-14T10:52:40Z
2020-01-14T08:55:11Z,42.805,6.029,13.2993,4.59988,2470.124,2020-1-14T10:55:43Z
2020-01-14T08:58:14Z,42.805,6.029,13.2991,4.59993,2470.11,2020-1-14T10:58:47Z
2020-01-14T09:01:18Z,42.805,6.029,13.3013,4.59994,2470.124,2020-1-14T11:01:50Z
2020-01-14T09:04:21Z,42.805,6.029,13.2991,4.59988,2470.133,2020-1-14T11:04:53Z
2020-01-14T09:07:24Z,42.805,6.029,13.2996,4.59991,2470.133,2020-1-14T11:07:56Z
2020-01-14T09:10:27Z,42.805,6.029,13.2990,4.59992,2470.133,2020-1-14T11:11:00Z
2020-01-14T09:13:30Z,42.805,6.029,13.3013,4.59984,2470.124,2020-1-14T11:14:03Z
2020-01-14T09:16:34Z,42.805,6.029,13.2991,4.59986,2470.133,2020-1-14T11:17:06Z
2020-01-14T09:19:37Z,42.805,6.029,13.2994,4.59983,2470.11,2020-1-14T11:20:09Z
2020-01-14T09:22:40Z,42.805,6.029,13.2994,4.59994,2470.11,2020-1-14T11:23:13Z
2020-01-14T09:25:43Z,42.805,6.029,13.2993,4.60012,2470.11,2020-1-14T11:26:16Z
2020-01-14T09:28:47Z,42.805,6.029,13.2997,4.59988,2470.11,2020-1-14T11:29:19Z
2020-01-14T09:31:50Z,42.805,6.029,13.2996,4.59994,2470.1,2020-1-14T11:32:23Z
2020-01-14T09:34:53Z,42.805,6.029,13.3000,4.59997,2470.18,2020-1-14T11:35:26Z
2020-01-14T09:37:57Z,42.805,6.029,13.3011,4.60003,2470.133,2020-1-14T11:38:29Z
2020-01-14T09:41:00Z,42.805,6.029,13.2996,4.59991,2470.133,2020-1-14T11:41:32Z
2020-01-14T09:44:03Z,42.805,6.029,13.2989,4.59996,2470.147,2020-1-14T11:44:35Z
2020-01-14T09:47:06Z,42.805,6.029,13.3001,4.59997,2470.11,2020-1-14T11:47:39Z
2020-01-14T09:50:10Z,42.805,6.029,13.2996,4.59990,2470.147,2020-1-14T11:50:42Z
2020-01-14T09:53:13Z,42.805,6.029,13.2995,4.59999,2470.124,2020-1-14T11:53:45Z
2020-01-14T09:56:16Z,42.805,6.029,13.2993,4.59990,2470.133,2020-1-14T11:56:49Z
2020-01-14T09:59:20Z,42.805,6.029,13.2993,4.59993,2470.156,2020-1-14T11:59:52Z
2020-01-14T10:02:23Z,42.805,6.029,13.3008,4.59991,2470.133,2020-1-14T12:02:55Z
2020-01-14T10:05:26Z,42.805,6.029,13.3005,4.59996,2470.133,2020-1-14T12:05:58Z
2020-01-14T10:08:29Z,42.805,6.029,13.3003,4.59993,2470.147,2020-1-14T12:09:02Z
2020-01-14T10:11:32Z,42.805,6.029,13.3009,4.59987,2470.124,2020-1-14T12:12:05Z
2020-01-14T10:14:36Z,42.805,6.029,13.2999,4.59997,2470.147,2020-1-14T12:15:08Z
2020-01-14T10:17:39Z,42.805,6.029,13.3019,4.59991,2470.133,2020-1-14T12:18:11Z
2020-01-14T10:20:42Z,42.805,6.029,13.3017,4.60003,2470.156,2020-1-14T12:21:14Z
2020-01-14T10:23:45Z,42.805,6.029,13.3019,4.59996,2470.147,2020-1-14T12:24:18Z
2020-01-14T10:26:49Z,42.805,6.029,13.3011,4.60003,2470.147,2020-1-14T12:27:21Z
2020-01-14T10:29:52Z,42.805,6.029,13.3025,4.60000,2470.147,2020-1-14T12:30:24Z
2020-01-14T10:32:55Z,42.805,6.029,13.3003,4.60000,2470.133,2020-1-14T12:33:27Z
2020-01-14T10:35:58Z,42.805,6.029,13.3003,4.59998,2470.133,2020-1-14T12:36:31Z
2020-01-14T10:39:02Z,42.805,6.029,13.3009,4.60000,2470.11,2020-1-14T12:39:34Z
2020-01-14T10:42:05Z,42.805,6.029,13.3026,4.60003,2470.133,2020-1-14T12:42:37Z
2020-01-14T10:45:08Z,42.805,6.029,13.2996,4.60007,2470.147,2020-1-14T12:45:40Z
2020-01-14T10:48:11Z,42.805,6.029,13.3006,4.59997,2470.18,2020-1-14T12:48:44Z
2020-01-14T10:51:15Z,42.805,6.029,13.3018,4.60003,2470.11,2020-1-14T12:51:47Z
2020-01-14T10:54:18Z,42.805,6.029,13.3011,4.60001,2470.133,2020-1-14T12:54:50Z
2020-01-14T10:57:21Z,42.805,6.029,13.3021,4.60001,2470.147,2020-1-14T12:57:54Z
2020-01-14T11:00:25Z,42.805,6.029,13.3005,4.60002,2470.133,2020-1-14T13:00:57Z
2020-01-14T11:03:28Z,42.805,6.029,13.3009,4.60015,2470.147,2020-1-14T13:04:01Z
2020-01-14T11:06:31Z,42.805,6.029,13.3041,4.60005,2470.124,2020-1-14T13:07:04Z
2020-01-14T11:09:35Z,42.805,6.029,13.3022,4.59994,2470.124,2020-1-14T13:10:07Z
2020-01-14T11:12:38Z,42.805,6.029,13.3011,4.60010,2470.11,2020-1-14T13:13:10Z
2020-01-14T11:15:41Z,42.805,6.029,13.3019,4.60009,2470.087,2020-1-14T13:16:14Z
2020-01-14T11:18:44Z,42.805,6.029,13.3019,4.60013,2470.147,2020-1-14T13:19:17Z
2020-01-14T11:21:48Z,42.805,6.029,13.3025,4.60002,2470.124,2020-1-14T13:22:20Z
2020-01-14T11:24:51Z,42.805,6.029,13.3021,4.59998,2470.11,2020-1-14T13:25:23Z
2020-01-14T11:27:54Z,42.805,6.029,13.3004,4.59992,2470.1,2020-1-14T13:28:27Z
2020-01-14T11:30:58Z,42.805,6.029,13.3029,4.59992,2470.1,2020-1-14T13:31:30Z
2020-01-14T11:34:01Z,42.805,6.029,13.2999,4.59999,2470.087,2020-1-14T13:34:33Z
2020-01-14T11:37:04Z,42.805,6.029,13.3014,4.60008,2470.147,2020-1-14T13:37:36Z
2020-01-14T11:40:07Z,42.805,6.029,13.3009,4.60003,2470.11,2020-1-14T13:40:40Z
2020-01-14T11:43:10Z,42.805,6.029,13.3004,4.59986,2470.124,2020-1-14T13:43:43Z
2020-01-14T11:46:14Z,42.805,6.029,13.3011,4.59997,2470.087,2020-1-14T13:46:46Z
2020-01-14T11:49:17Z,42.805,6.029,13.3004,4.60013,2470.124,2020-1-14T13:49:49Z
2020-01-14T11:52:20Z,42.805,6.029,13.3022,4.60010,2470.1,2020-1-14T13:52:53Z
2020-01-14T11:55:23Z,42.805,6.029,13.3031,4.59996,2470.11,2020-1-14T13:55:56Z
2020-01-14T11:58:27Z,42.805,6.029,13.3009,4.59998,2470.1,2020-1-14T13:58:59Z
2020-01-14T12:01:30Z,42.805,6.029,13.3005,4.59998,2470.1,2020-1-14T14:02:02Z
2020-01-14T12:04:33Z,42.805,6.029,13.3041,4.59995,2470.1,2020-1-14T14:05:06Z
2020-01-14T12:07:36Z,42.805,6.029,13.3017,4.60006,2470.077,2020-1-14T14:08:09Z
2020-01-14T12:10:40Z,42.805,6.029,13.3010,4.60011,2470.087,2020-1-14T14:11:12Z
2020-01-14T12:13:43Z,42.805,6.029,13.3043,4.60018,2470.063,2020-1-14T14:14:15Z
2020-01-14T12:16:46Z,42.805,6.029,13.3033,4.60004,2470.1,2020-1-14T14:17:18Z
2020-01-14T12:19:49Z,42.805,6.029,13.3039,4.60023,2470.077,2020-1-14T14:20:22Z
2020-01-14T12:22:52Z,42.805,6.029,13.3024,4.59999,2470.1,2020-1-14T14:23:25Z
2020-01-14T12:25:56Z,42.805,6.029,13.3029,4.59990,2470.1,2020-1-14T14:26:28Z
2020-01-14T12:28:59Z,42.805,6.029,13.3014,4.60002,2470.04,2020-1-14T14:29:31Z
2020-01-14T12:32:02Z,42.805,6.029,13.3021,4.60001,2470.063,2020-1-14T14:32:35Z
2020-01-14T12:35:06Z,42.805,6.029,13.3043,4.60011,2470.04,2020-1-14T14:35:38Z
2020-01-14T12:38:09Z,42.805,6.029,13.3017,4.59996,2470.087,2020-1-14T14:38:41Z
2020-01-14T12:41:12Z,42.805,6.029,13.3018,4.60005,2470.063,2020-1-14T14:41:44Z
2020-01-14T12:44:15Z,42.805,6.029,13.3023,4.60000,2470.053,2020-1-14T14:44:48Z
2020-01-14T12:47:19Z,42.805,6.029,13.3023,4.60002,2470.017,2020-1-14T14:47:51Z
2020-01-14T12:50:22Z,42.805,6.029,13.3024,4.60001,2470.053,2020-1-14T14:50:54Z
2020-01-14T12:53:25Z,42.805,6.029,13.3024,4.60003,2470.077,2020-1-14T14:53:57Z
2020-01-14T12:56:28Z,42.805,6.029,13.3018,4.59992,2470.04,2020-1-14T14:57:01Z
2020-01-14T12:59:32Z,42.805,6.029,13.3007,4.60006,2470.077,2020-1-14T15:00:04Z
2020-01-14T13:02:35Z,42.805,6.029,13.3023,4.60003,2470.063,2020-1-14T15:03:07Z
2020-01-14T13:05:38Z,42.805,6.029,13.3026,4.59978,2470.063,2020-1-14T15:06:10Z
2020-01-14T13:08:41Z,42.805,6.029,13.2993,4.60006,2470.017,2020-1-14T15:09:14Z
2020-01-14T13:11:45Z,42.805,6.029,13.3011,4.59991,2470.03,2020-1-14T15:12:17Z
2020-01-14T13:14:48Z,42.805,6.029,13.3019,4.59989,2470.017,2020-1-14T15:15:20Z
2020-01-14T13:17:51Z,42.805,6.029,13.3006,4.60022,2470.053,2020-1-14T15:18:24Z
2020-01-14T13:20:54Z,42.805,6.029,13.3024,4.60004,2470.017,2020-1-14T15:21:27Z
2020-01-14T13:23:58Z,42.805,6.029,13.3022,4.60006,2470.04,2020-1-14T15:24:30Z
2020-01-14T13:27:01Z,42.805,6.029,13.3015,4.60002,2470.03,2020-1-14T15:27:33Z
2020-01-14T13:30:04Z,42.805,6.029,13.3025,4.59994,2469.993,2020-1-14T15:30:37Z
2020-01-14T13:33:08Z,42.805,6.029,13.3019,4.60007,2470.017,2020-1-14T15:33:40Z
2020-01-14T13:36:11Z,42.805,6.029,13.3026,4.59996,2470.03,2020-1-14T15:36:43Z
2020-01-14T13:39:14Z,42.805,6.029,13.3026,4.60018,2470.03,2020-1-14T15:39:46Z
2020-01-14T13:42:17Z,42.805,6.029,13.3036,4.60005,2470.007,2020-1-14T15:42:50Z
2020-01-14T13:45:21Z,42.805,6.029,13.3025,4.59994,2470.03,2020-1-14T15:45:53Z
2020-01-14T13:48:24Z,42.805,6.029,13.3026,4.60003,2470.007,2020-1-14T15:48:56Z
2020-01-14T13:51:27Z,42.805,6.029,13.3050,4.59991,2470.03,2020-1-14T15:51:59Z
2020-01-14T13:54:30Z,42.805,6.029,13.3051,4.59999,2469.993,2020-1-14T15:55:03Z
2020-01-14T13:57:33Z,42.805,6.029,13.3054,4.59996,2470.03,2020-1-14T15:58:06Z
2020-01-14T14:00:37Z,42.805,6.029,13.3022,4.59996,2470.007,2020-1-14T16:01:09Z
2020-01-14T14:03:40Z,42.805,6.029,13.3040,4.60008,2470.017,2020-1-14T16:04:12Z
2020-01-14T14:06:43Z,42.805,6.029,13.3034,4.60013,2469.993,2020-1-14T16:07:16Z
2020-01-14T14:09:46Z,42.805,6.029,13.3029,4.60003,2470.03,2020-1-14T16:10:19Z
2020-01-14T14:12:50Z,42.805,6.029,13.3037,4.60000,2470.007,2020-1-14T16:13:22Z
2020-01-14T14:15:53Z,42.805,6.029,13.3032,4.60004,2470.007,2020-1-14T16:16:25Z
2020-01-14T14:18:56Z,42.805,6.029,13.3025,4.60003,2469.984,2020-1-14T16:19:29Z
2020-01-14T14:22:00Z,42.805,6.029,13.3024,4.59999,2469.984,2020-1-14T16:22:32Z
2020-01-14T14:25:03Z,42.805,6.029,13.3035,4.60023,2469.96,2020-1-14T16:25:35Z
2020-01-14T14:28:06Z,42.805,6.029,13.3011,4.59994,2469.993,2020-1-14T16:28:39Z
2020-01-14T14:31:09Z,42.805,6.029,13.3021,4.60014,2469.984,2020-1-14T16:31:42Z
2020-01-14T14:34:12Z,42.805,6.029,13.3024,4.60006,2470.007,2020-1-14T16:34:45Z
2020-01-14T14:37:16Z,42.805,6.029,13.3004,4.60003,2469.97,2020-1-14T16:37:48Z
2020-01-14T14:40:19Z,42.805,6.029,13.3011,4.60010,2469.96,2020-1-14T16:40:51Z
2020-01-14T14:43:23Z,42.805,6.029,13.3014,4.60006,2469.984,2020-1-14T16:43:55Z
2020-01-14T14:46:26Z,42.805,6.029,13.3007,4.60029,2469.947,2020-1-14T16:46:58Z
2020-01-14T14:49:29Z,42.805,6.029,13.3049,4.60009,2469.97,2020-1-14T16:50:01Z
2020-01-14T14:52:32Z,42.805,6.029,13.3044,4.60007,2469.993,2020-1-14T16:53:05Z
2020-01-14T14:55:36Z,42.805,6.029,13.3044,4.60026,2469.984,2020-1-14T16:56:08Z
2020-01-14T14:58:39Z,42.805,6.029,13.3040,4.60009,2469.984,2020-1-14T16:59:11Z
2020-01-14T15:01:42Z,42.805,6.029,13.3056,4.60006,2469.96,2020-1-14T17:02:14Z
2020-01-14T15:04:45Z,42.805,6.029,13.3016,4.60009,2469.947,2020-1-14T17:05:18Z
2020-01-14T15:07:49Z,42.805,6.029,13.3027,4.60011,2469.96,2020-1-14T17:08:21Z
2020-01-14T15:10:52Z,42.805,6.029,13.3046,4.60017,2469.96,2020-1-14T17:11:24Z
2020-01-14T15:13:56Z,42.805,6.029,13.3026,4.60006,2469.984,2020-1-14T17:14:28Z